| time (UTC) | temp F | wind direction | speed MPH | gust MPH | rain 1hr in | rain 24hr in | rain mn in | humidity % | barometer mb |
| 20260509012703 | 36 | 0 | 0.0 | 0.0 | 0.00 | 0.00 | 0.00 | 61 | |
| 20260509011803 | 37 | 0 | 0.0 | 0.0 | 0.00 | 0.00 | 0.00 | 61 | |
| 20260509010903 | 37 | 0 | 0.0 | 0.0 | 0.00 | 0.00 | 0.00 | 61 | |
| 20260509010003 | 37 | 0 | 0.0 | 0.0 | 0.00 | 0.00 | 0.00 | 60 | |
| 20260509005403 | 38 | 0 | 0.0 | 0.0 | 0.00 | 0.00 | 0.00 | 60 | |
| 20260509004503 | 38 | 0 | 0.0 | 0.0 | 0.00 | 0.00 | 0.00 | 61 | |
| 20260509003603 | 38 | 0 | 0.0 | 0.0 | 0.00 | 0.00 | 0.00 | 61 | |
| 20260509002703 | 38 | 0 | 0.0 | 0.0 | 0.00 | 0.00 | 0.00 | 61 | |
| 20260509001803 | 39 | 0 | 0.0 | 0.0 | 0.00 | 0.00 | 0.00 | 62 | |
| 20260509000903 | 39 | 0 | 0.0 | 0.0 | 0.00 | 0.00 | 0.00 | 59 | |
| 20260509000219 | 39 | 0 | 0.0 | 0.0 | 0.00 | 0.00 | 0.00 | 58 | |
| 20260508235403 | 39 | 0 | 0.0 | 0.0 | 0.00 | 0.00 | 0.00 | 57 | |
| 20260508234503 | 40 | 0 | 0.0 | 0.0 | 0.00 | 0.00 | 0.00 | 56 | |
| 20260508233603 | 40 | 0 | 0.0 | 0.0 | 0.00 | 0.00 | 0.00 | 52 | |
| 20260508232703 | 40 | 0 | 0.0 | 0.0 | 0.00 | 0.00 | 0.00 | 51 | |
| 20260508231803 | 40 | 95 | 0.0 | 1.0 | 0.00 | 0.00 | 0.00 | 51 | |
| 20260508230903 | 41 | 89 | 0.0 | 1.0 | 0.00 | 0.00 | 0.00 | 51 | |
| 20260508230003 | 41 | 89 | 0.0 | 1.0 | 0.00 | 0.00 | 0.00 | 51 | |
| 20260508225403 | 41 | 0 | 0.0 | 0.0 | 0.00 | 0.00 | 0.00 | 52 | |
| 20260508224503 | 41 | 0 | 0.0 | 0.0 | 0.00 | 0.00 | 0.00 | 53 | |
| 20260508223603 | 41 | 83 | 0.0 | 1.0 | 0.00 | 0.00 | 0.00 | 50 | |
| 20260508222703 | 42 | 0 | 0.0 | 0.0 | 0.00 | 0.00 | 0.00 | 51 | |
| 20260508221803 | 42 | 87 | 0.0 | 2.0 | 0.00 | 0.00 | 0.00 | 49 | |
| 20260508220903 | 42 | 90 | 0.0 | 2.0 | 0.00 | 0.00 | 0.00 | 48 | |
| 20260508220003 | 43 | 0 | 0.0 | 0.0 | 0.00 | 0.00 | 0.00 | 48 | |
| 20260508215403 | 43 | 0 | 0.0 | 0.0 | 0.00 | 0.00 | 0.00 | 47 | |
| 20260508214503 | 43 | 95 | 0.0 | 1.0 | 0.00 | 0.00 | 0.00 | 46 | |
| 20260508213603 | 44 | 128 | 0.0 | 3.0 | 0.00 | 0.00 | 0.00 | 46 | |
| 20260508212703 | 44 | 92 | 0.0 | 1.0 | 0.00 | 0.00 | 0.00 | 45 | |
| 20260508211803 | 44 | 97 | 0.0 | 2.0 | 0.00 | 0.00 | 0.00 | 45 | |
| 20260508210903 | 45 | 115 | 0.0 | 3.0 | 0.00 | 0.00 | 0.00 | 43 | |
| 20260508210003 | 46 | 123 | 0.0 | 3.0 | 0.00 | 0.00 | 0.00 | 42 | |
| 20260508205403 | 46 | 131 | 0.0 | 3.0 | 0.00 | 0.00 | 0.00 | 41 | |
| 20260508204503 | 47 | 131 | 0.0 | 4.0 | 0.00 | 0.00 | 0.00 | 40 | |
| 20260508203603 | 47 | 147 | 1.0 | 4.0 | 0.00 | 0.00 | 0.00 | 41 | |
| 20260508202703 | 47 | 155 | 1.0 | 6.0 | 0.00 | 0.00 | 0.00 | 38 | |
| 20260508201803 | 47 | 149 | 1.0 | 5.0 | 0.00 | 0.00 | 0.00 | 38 | |
| 20260508200903 | 48 | 144 | 0.0 | 3.0 | 0.00 | 0.00 | 0.00 | 39 | |
| 20260508200216 | 48 | 129 | 0.0 | 3.0 | 0.00 | 0.00 | 0.00 | 38 | |
| 20260508195403 | 48 | 127 | 0.0 | 4.0 | 0.00 | 0.00 | 0.00 | 40 | |
| 20260508194503 | 48 | 141 | 1.0 | 4.0 | 0.00 | 0.00 | 0.00 | 40 | |
| 20260508193818 | 49 | 131 | 0.0 | 4.0 | 0.00 | 0.00 | 0.00 | 38 | |
| 20260508192917 | 49 | 135 | 1.0 | 6.0 | 0.00 | 0.00 | 0.00 | 38 | |
| 20260508191803 | 50 | 152 | 1.0 | 4.0 | 0.00 | 0.00 | 0.00 | 35 | |
| 20260508191116 | 51 | 141 | 0.0 | 3.0 | 0.00 | 0.00 | 0.00 | 34 | |
| 20260508190003 | 52 | 142 | 1.0 | 4.0 | 0.00 | 0.00 | 0.00 | 33 | |
| 20260508185403 | 52 | 148 | 2.0 | 7.0 | 0.00 | 0.00 | 0.00 | 33 | |
| 20260508184503 | 53 | 150 | 1.0 | 10.0 | 0.00 | 0.00 | 0.00 | 33 | |
| 20260508183603 | 53 | 140 | 1.0 | 6.0 | 0.00 | 0.00 | 0.00 | 31 | |
| 20260508182703 | 54 | 164 | 1.0 | 6.0 | 0.00 | 0.00 | 0.00 | 31 | |
| 20260508181803 | 54 | 157 | 2.0 | 11.0 | 0.00 | 0.00 | 0.00 | 29 | |
| 20260508180903 | 55 | 167 | 4.0 | 14.0 | 0.00 | 0.00 | 0.00 | 28 | |
| 20260508180003 | 56 | 161 | 2.0 | 10.0 | 0.00 | 0.00 | 0.00 | 28 | |
| 20260508175403 | 56 | 160 | 3.0 | 12.0 | 0.00 | 0.00 | 0.00 | 28 | |
| 20260508174503 | 55 | 163 | 1.0 | 8.0 | 0.00 | 0.00 | 0.00 | 28 | |
| 20260508173603 | 56 | 179 | 2.0 | 8.0 | 0.00 | 0.00 | 0.00 | 28 | |
| 20260508172703 | 56 | 147 | 2.0 | 11.0 | 0.00 | 0.00 | 0.00 | 29 | |
| 20260508171803 | 56 | 155 | 3.0 | 10.0 | 0.00 | 0.00 | 0.00 | 28 | |
| 20260508170903 | 57 | 151 | 4.0 | 19.0 | 0.00 | 0.00 | 0.00 | 28 | |
| 20260508170003 | 57 | 159 | 4.0 | 11.0 | 0.00 | 0.00 | 0.00 | 29 | |
| 20260508165618 | 58 | 165 | 4.0 | 10.0 | 0.00 | 0.00 | 0.00 | 28 | |
| 20260508164503 | 58 | 164 | 4.0 | 12.0 | 0.00 | 0.00 | 0.00 | 28 | |
| 20260508163603 | 58 | 173 | 3.0 | 12.0 | 0.00 | 0.00 | 0.00 | 28 | |
| 20260508162916 | 59 | 159 | 3.0 | 9.0 | 0.00 | 0.00 | 0.00 | 27 | |
| 20260508161803 | 60 | 158 | 4.0 | 10.0 | 0.00 | 0.00 | 0.00 | 26 | |
| 20260508160903 | 60 | 170 | 4.0 | 14.0 | 0.00 | 0.00 | 0.00 | 25 | |
| 20260508160003 | 60 | 157 | 4.0 | 13.0 | 0.00 | 0.00 | 0.00 | 27 | |
| 20260508155618 | 60 | 162 | 5.0 | 13.0 | 0.00 | 0.00 | 0.00 | 26 | |
| 20260508154503 | 60 | 168 | 3.0 | 8.0 | 0.00 | 0.00 | 0.00 | 27 | |
| 20260508153603 | 61 | 168 | 3.0 | 8.0 | 0.00 | 0.00 | 0.00 | 28 | |
| 20260508152703 | 62 | 163 | 4.0 | 10.0 | 0.00 | 0.00 | 0.00 | 26 | |
| 20260508151803 | 63 | 178 | 5.0 | 13.0 | 0.00 | 0.00 | 0.00 | 26 | |
| 20260508150903 | 63 | 166 | 5.0 | 11.0 | 0.00 | 0.00 | 0.00 | 25 | |
| 20260508150218 | 61 | 149 | 4.0 | 12.0 | 0.00 | 0.00 | 0.00 | 28 | |
| 20260508145403 | 61 | 154 | 3.0 | 12.0 | 0.00 | 0.00 | 0.00 | 27 | |
| 20260508144503 | 61 | 178 | 3.0 | 11.0 | 0.00 | 0.00 | 0.00 | 26 | |
| 20260508143816 | 62 | 175 | 2.0 | 4.0 | 0.00 | 0.00 | 0.00 | 26 | |
| 20260508142703 | 63 | 173 | 3.0 | 7.0 | 0.00 | 0.00 | 0.00 | 25 | |
| 20260508141803 | 63 | 164 | 2.0 | 6.0 | 0.00 | 0.00 | 0.00 | 27 | |
| 20260508140903 | 62 | 218 | 3.0 | 9.0 | 0.00 | 0.00 | 0.00 | 26 | |
| 20260508140003 | 62 | 190 | 3.0 | 10.0 | 0.00 | 0.00 | 0.00 | 26 | |
| 20260508135403 | 62 | 194 | 3.0 | 10.0 | 0.00 | 0.00 | 0.00 | 26 | |
| 20260508134503 | 64 | 180 | 4.0 | 11.0 | 0.00 | 0.00 | 0.00 | 26 | |
| 20260508133603 | 64 | 206 | 3.0 | 10.0 | 0.00 | 0.00 | 0.00 | 25 | |
| 20260508132703 | 63 | 154 | 4.0 | 13.0 | 0.00 | 0.00 | 0.00 | 24 | |
| 20260508132018 | 63 | 156 | 3.0 | 14.0 | 0.00 | 0.00 | 0.00 | 28 | |
| 20260508130903 | 63 | 168 | 5.0 | 13.0 | 0.00 | 0.00 | 0.00 | 24 | |
| 20260508130003 | 63 | 174 | 5.0 | 13.0 | 0.00 | 0.00 | 0.00 | 24 | |
| 20260508125403 | 63 | 163 | 4.0 | 8.0 | 0.00 | 0.00 | 0.00 | 27 | |
| 20260508124503 | 63 | 187 | 4.0 | 12.0 | 0.00 | 0.00 | 0.00 | 26 | |
| 20260508123819 | 62 | 149 | 5.0 | 14.0 | 0.00 | 0.00 | 0.00 | 27 | |
| 20260508122703 | 63 | 163 | 4.0 | 15.0 | 0.00 | 0.00 | 0.00 | 24 | |
| 20260508121803 | 63 | 174 | 6.0 | 15.0 | 0.00 | 0.00 | 0.00 | 23 | |
| 20260508120903 | 63 | 182 | 4.0 | 12.0 | 0.00 | 0.00 | 0.00 | 26 | |
| 20260508120217 | 63 | 165 | 4.0 | 13.0 | 0.00 | 0.00 | 0.00 | 24 | |
| 20260508115403 | 63 | 187 | 4.0 | 13.0 | 0.00 | 0.00 | 0.00 | 25 | |
| 20260508114503 | 62 | 182 | 6.0 | 13.0 | 0.00 | 0.00 | 0.00 | 27 | |
| 20260508113603 | 62 | 153 | 5.0 | 12.0 | 0.00 | 0.00 | 0.00 | 25 | |
| 20260508112918 | 61 | 167 | 5.0 | 15.0 | 0.00 | 0.00 | 0.00 | 26 | |
| 20260508111803 | 61 | 165 | 4.0 | 11.0 | 0.00 | 0.00 | 0.00 | 26 | |
| 20260508110903 | 61 | 182 | 5.0 | 12.0 | 0.00 | 0.00 | 0.00 | 28 | |
| 20260508110003 | 61 | 166 | 5.0 | 12.0 | 0.00 | 0.00 | 0.00 | 25 | |
| 20260508105403 | 61 | 167 | 4.0 | 11.0 | 0.00 | 0.00 | 0.00 | 27 | |
| 20260508104503 | 61 | 169 | 5.0 | 12.0 | 0.00 | 0.00 | 0.00 | 25 | |
| 20260508103603 | 61 | 171 | 5.0 | 11.0 | 0.00 | 0.00 | 0.00 | 27 | |
| 20260508102703 | 61 | 172 | 5.0 | 14.0 | 0.00 | 0.00 | 0.00 | 26 | |
| 20260508101803 | 60 | 166 | 6.0 | 14.0 | 0.00 | 0.00 | 0.00 | 28 | |
| 20260508100903 | 60 | 175 | 5.0 | 14.0 | 0.00 | 0.00 | 0.00 | 26 | |
| 20260508100004 | 60 | 183 | 4.0 | 12.0 | 0.00 | 0.00 | 0.00 | 28 | |
| 20260508095615 | 60 | 173 | 4.0 | 15.0 | 0.00 | 0.00 | 0.00 | 28 | |
| 20260508094503 | 59 | 169 | 5.0 | 16.0 | 0.00 | 0.00 | 0.00 | 26 | |
| 20260508093603 | 59 | 189 | 3.0 | 11.0 | 0.00 | 0.00 | 0.00 | 27 | |
| 20260508092703 | 59 | 177 | 4.0 | 10.0 | 0.00 | 0.00 | 0.00 | 28 | |
| 20260508091803 | 59 | 180 | 3.0 | 9.0 | 0.00 | 0.00 | 0.00 | 29 | |
| 20260508091116 | 58 | 192 | 4.0 | 10.0 | 0.00 | 0.00 | 0.00 | 33 | |
| 20260508090003 | 57 | 170 | 4.0 | 11.0 | 0.00 | 0.00 | 0.00 | 34 | |
| 20260508085403 | 58 | 180 | 3.0 | 10.0 | 0.00 | 0.00 | 0.00 | 35 | |
| 20260508084503 | 57 | 190 | 3.0 | 10.0 | 0.00 | 0.00 | 0.00 | 37 | |
| 20260508083818 | 57 | 179 | 3.0 | 11.0 | 0.00 | 0.00 | 0.00 | 37 | |
| 20260508082703 | 56 | 168 | 3.0 | 9.0 | 0.00 | 0.00 | 0.00 | 39 | |
| 20260508081803 | 56 | 177 | 4.0 | 13.0 | 0.00 | 0.00 | 0.00 | 38 | |
| 20260508080903 | 55 | 158 | 2.0 | 9.0 | 0.00 | 0.00 | 0.00 | 39 | |
| 20260508080003 | 54 | 161 | 2.0 | 10.0 | 0.00 | 0.00 | 0.00 | 38 | |
| 20260508075403 | 54 | 158 | 2.0 | 11.0 | 0.00 | 0.00 | 0.00 | 38 | |
| 20260508074503 | 53 | 169 | 2.0 | 11.0 | 0.00 | 0.00 | 0.00 | 39 | |
| 20260508073603 | 52 | 162 | 3.0 | 10.0 | 0.00 | 0.00 | 0.00 | 40 | |
| 20260508072703 | 52 | 169 | 2.0 | 7.0 | 0.00 | 0.00 | 0.00 | 42 | |
| 20260508071803 | 51 | 182 | 2.0 | 10.0 | 0.00 | 0.00 | 0.00 | 42 | |
| 20260508070903 | 50 | 140 | 2.0 | 10.0 | 0.00 | 0.00 | 0.00 | 43 | |
| 20260508070003 | 49 | 153 | 1.0 | 7.0 | 0.00 | 0.00 | 0.00 | 44 | |
| 20260508065618 | 48 | 148 | 1.0 | 4.0 | 0.00 | 0.00 | 0.00 | 46 | |
| 20260508064503 | 46 | 164 | 1.0 | 3.0 | 0.00 | 0.00 | 0.00 | 49 | |
| 20260508063603 | 46 | 168 | 2.0 | 5.0 | 0.00 | 0.00 | 0.00 | 50 | |
| 20260508062703 | 45 | 146 | 1.0 | 5.0 | 0.00 | 0.00 | 0.00 | 50 | |
| 20260508062016 | 44 | 140 | 1.0 | 5.0 | 0.00 | 0.00 | 0.00 | 53 | |
| 20260508061119 | 43 | 166 | 1.0 | 5.0 | 0.00 | 0.00 | 0.00 | 54 | |
| 20260508060003 | 41 | 154 | 1.0 | 5.0 | 0.00 | 0.00 | 0.00 | 57 | |
| 20260508055403 | 40 | 160 | 1.0 | 4.0 | 0.00 | 0.00 | 0.00 | 61 | |
| 20260508054503 | 40 | 132 | 0.0 | 3.0 | 0.00 | 0.00 | 0.00 | 63 | |
| 20260508053603 | 39 | 76 | 0.0 | 4.0 | 0.00 | 0.00 | 0.00 | 70 | |
| 20260508052703 | 38 | 83 | 0.0 | 3.0 | 0.00 | 0.00 | 0.00 | 70 | |
| 20260508052015 | 38 | 82 | 0.0 | 3.0 | 0.00 | 0.00 | 0.00 | 71 | |
| 20260508050903 | 37 | 82 | 0.0 | 1.0 | 0.00 | 0.00 | 0.00 | 71 | |
| 20260508050003 | 36 | 82 | 0.0 | 2.0 | 0.00 | 0.00 | 0.00 | 73 | |
| 20260508045403 | 36 | 82 | 0.0 | 2.0 | 0.00 | 0.00 | 0.00 | 74 | |
| 20260508044503 | 36 | 82 | 0.0 | 2.0 | 0.00 | 0.00 | 0.00 | 74 | |
| 20260508043603 | 35 | 0 | 0.0 | 0.0 | 0.00 | 0.00 | 0.00 | 74 | |
| 20260508042916 | 35 | 82 | 0.0 | 1.0 | 0.00 | 0.00 | 0.00 | 74 | |
| 20260508042019 | 35 | 0 | 0.0 | 0.0 | 0.00 | 0.00 | 0.00 | 75 | |
| 20260508040903 | 34 | 0 | 0.0 | 0.0 | 0.00 | 0.00 | 0.00 | 76 | |
| 20260508040218 | 34 | 0 | 0.0 | 0.0 | 0.00 | 0.00 | 0.00 | 77 | |
| 20260508035403 | 34 | 0 | 0.0 | 0.0 | 0.00 | 0.00 | 0.00 | 77 | |
| 20260508034503 | 34 | 0 | 0.0 | 0.0 | 0.00 | 0.00 | 0.00 | 76 | |
| 20260508033603 | 34 | 0 | 0.0 | 0.0 | 0.00 | 0.00 | 0.00 | 76 | |
| 20260508032703 | 34 | 82 | 0.0 | 1.0 | 0.00 | 0.00 | 0.00 | 75 | |
| 20260508031803 | 35 | 0 | 0.0 | 0.0 | 0.00 | 0.00 | 0.00 | 76 | |
| 20260508030903 | 35 | 82 | 0.0 | 1.0 | 0.00 | 0.00 | 0.00 | 75 | |
| 20260508030003 | 35 | 82 | 0.0 | 1.0 | 0.00 | 0.00 | 0.00 | 75 | |
| 20260508025617 | 35 | 82 | 0.0 | 1.0 | 0.00 | 0.00 | 0.00 | 75 | |
| 20260508024716 | 35 | 82 | 0.0 | 2.0 | 0.00 | 0.00 | 0.00 | 75 | |
| 20260508023603 | 36 | 82 | 0.0 | 1.0 | 0.00 | 0.00 | 0.00 | 74 | |
| 20260508022703 | 36 | 82 | 0.0 | 1.0 | 0.00 | 0.00 | 0.00 | 74 | |
| 20260508021803 | 36 | 0 | 0.0 | 0.0 | 0.00 | 0.00 | 0.00 | 73 | |
| 20260508020903 | 36 | 82 | 0.0 | 1.0 | 0.00 | 0.00 | 0.00 | 73 | |
| 20260508020003 | 36 | 0 | 0.0 | 0.0 | 0.00 | 0.00 | 0.00 | 73 | |
| 20260508015403 | 36 | 0 | 0.0 | 0.0 | 0.00 | 0.00 | 0.00 | 72 | |
| 20260508014503 | 36 | 0 | 0.0 | 0.0 | 0.00 | 0.00 | 0.00 | 72 | |
| 20260508013603 | 36 | 82 | 0.0 | 1.0 | 0.00 | 0.00 | 0.00 | 72 |